sat.trackr.live / text

‹ back to catalog

STARLINK-5727

NORAD 55587 · 2023-020U

PAYLOAD ACTIVE UNKNOWN

§ Identity

Operator
Country
US
Launch date
2023-02-12
Launch site
AFETR
Launch vehicle
Mass (kg)
RCS (m²)

Purposes: comms

External: N2YO · Heavens-Above · Gunter

§ Orbital elements

Epoch: 2026-05-25T03:24:14.918976Z

Period
94.27 min
Inclination
43.0045°
Eccentricity
0.0001688
Mean motion
15.27576919 rev/d
Perigee alt
481.9 km
Apogee alt
484.2 km
Semi-major
6,861.2 km
B*
2.9282e-5
RAAN
293.4961°
Arg perigee
270.7515°
Mean anomaly
89.3143°
Rev number
18,060

§ Raw data

STARLINK-57271 55587U 23020U   26145.14183934  .00000543  00000+0  29282-4 0  99962 55587  43.0045 293.4961 0001688 270.7515  89.3143 15.27576919180607

JSON: /api/v1/satellites/55587 · /tle

For live sub-satellite position, see the globe view (requires WebGL).

§ Visibility from observer

Set your observer location to see the next 7 days of passes ≥ 10°. The values pass through the URL so the page stays shareable.

No JS? Fill the form by hand. The geolocation button needs JavaScript.